www.pogodaiklimat.ru

Погода и климат >> Архив погоды >> Индия >> Бихар >> Патна


ПОГОДА в Патне

  • Прогноз погоды в Патне
  • Монитор погоды в Патне

АРХИВ ПОГОДЫ в Патне

Время (UTC), дата Ветер
(напр.,м/с)
 
Видим.   Явления Облачность Т
(С)
Тd
(С)
f
(%)
Тe
(С)
Тes
(С)
Комфортность P
(гПа)
Po
(гПа)
Тmin
(С)
Tmax
(С)
R
(мм)
R24
(мм)
S
(см)
18 14.09 В 1 2000 м дымка {дождь} 9/5 540 м
[Sc Ac trans]
+28.2 +25.9 87 +42 +42 опасность
перегрева
1005.4 998.6 0.4
21 14.09 В 1 2000 м дымка 9/5 540 м
[Sc Ac trans]
+28.0 +26.3 91 +43 +43 опасность
перегрева
1004.7 997.9 0.4
00 15.09 штиль 0 2000 м дымка 8/4 600 м
[Sc Ac trans]
+27.0 +25.9 94 +40 +40 очень
душно
1004.5 997.7 0.4
03 15.09 штиль 0 2000 м дымка 9/5 540 м
[Sc Ac trans]
+28.4 +26.7 91 +44 +47 опасность
перегрева
1006.1 999.3 +26.6 0.4
06 15.09 штиль 0 2000 м мгла 8/5 540 м
[Sc Ac trans]
+32.0 +27.0 75 +50 +58 опасность
перегрева
1005.4 998.7
09 15.09 С 1 4000 м мгла 8/5 540 м
[Sc Ac trans]
+33.4 +26.5 67 +50 +54 опасность
перегрева
1002.4 995.7
12 15.09 штиль 0 4000 м мгла 8/4 540 м
[Sc Ac trans]
+31.8 +27.1 76 +50 +50 опасность
перегрева
1001.9 995.2 +34.0
15 15.09 штиль 0 2000 м дымка 8/4 540 м
[Sc Ac trans]
+29.6 +27.4 88 +48 +48 опасность
перегрева
1004.2 997.4
18 15.09 штиль 0 2000 м дымка 8/4 540 м
[Sc Ac trans]
+29.2 +27.5 91 +47 +47 опасность
перегрева
1004.2 997.4
21 15.09 штиль 0 2000 м дымка 8/4 540 м
[Sc Ac trans]
+28.2 +27.1 94 +45 +45 опасность
перегрева
1002.6 995.8
00 16.09 штиль 0 2000 м дымка 6/4 540 м
[Sc Ac trans]
+27.8 +26.7 94 +43 +43 опасность
перегрева
1003.3 996.5
03 16.09 ЮЗ 1 2000 м мгла 6/4 540 м
[Sc Ac trans]
+32.8 +27.6 74 +52 +57 опасность
перегрева
1004.3 997.6 +27.4
06 16.09 штиль 0 4000 м мгла 8/4 540 м
[Sc Ac trans]
+34.0 +27.1 67 +52 +61 опасность
перегрева
1003.7 997.0
09 16.09 В 2 4000 м гроза без осадков 9/6 540 м
[Cb calv Ac trans]
+28.8 +25.7 83 +43 +45 опасность
перегрева
1001.6 994.8
12 16.09 В 2 2000 м мгла {гроза} 9/5 540 м
[Sc Ac trans]
+28.6 +25.5 83 +42 +42 опасность
перегрева
1001.5 994.7 +34.9
15 16.09 штиль 0 2000 м мгла 8/5 540 м
[Sc Ac trans]
+28.0 +25.4 86 +41 +41 опасность
перегрева
1003.5 996.7
18 16.09 штиль 0 2000 м мгла 8/4 540 м
[Sc Ac trans]
+27.8 +25.8 89 +41 +41 опасность
перегрева
1004.1 997.3
21 16.09 В 1 2000 м дымка 9/5 540 м
[Sc Ac trans]
+27.2 +26.1 94 +41 +41 опасность
перегрева
1003.1 996.3
00 17.09 штиль 0 2000 м дымка 8/4 540 м
[Sc Ac trans]
+27.0 +26.2 95 +41 +41 опасность
перегрева
1003.5 996.7
03 17.09 В 2 2000 м дымка 8/4 540 м
[Sc Ac trans]
+29.4 +26.6 85 +45 +48 опасность
перегрева
1005.5 998.7 +26.6
06 17.09 В 3 2000 м мгла 9/6 540 м
[Sc diur, vesp Ac trans]
+30.0 +27.8 88 +49 +52 опасность
перегрева
1005.2 998.4
09 17.09 ЮВ 3 2000 м мгла 9/6 540 м
[Sc diur, vesp Ac trans]
+31.4 +27.3 79 +50 +52 опасность
перегрева
1003.1 996.4
12 17.09 В 1 1000 м гроза, ливневой дождь 10/6 300 м
[Cb cap As op]
+27.4 +26.0 92 +41 +41 опасность
перегрева
1005.1 998.3 +32.6 5
15 17.09 В 1 1000 м гроза, ливневой дождь 10/6 300 м
[Sc diur, vesp Ac trans]
+27.4 +26.8 97 +43 +43 опасность
перегрева
1007.2 1000.4 8
18 17.09 В 2 1000 м гроза, ливневой дождь 10/6 300 м
[Sc diur, vesp Ac trans]
+23.8 +23.2 96 +32 +32 очень
душно
1007.8 1000.9 84
21 17.09 штиль 0 1000 м гроза, ливневой дождь 10/6 300 м
[Sc diur, vesp Ac trans]
+24.2 +23.9 98 +33 +33 очень
душно
1006.2 999.3 92
00 18.09 В 2 2000 м слаб. дождь {гроза} 10/6 300 м
[Frnb As op]
+24.0 +23.7 98 +33 +33 очень
душно
1007.6 1000.7 94
03 18.09 В 1 2000 м дымка {дождь} 10/5 540 м
[Sc As op]
+25.6 +24.4 93 +36 +37 очень
душно
1010.5 1003.6 +22.6 94
06 18.09 В 3 4000 м мгла 9/5 540 м
[Sc Ac trans]
+29.2 +25.2 79 +42 +47 опасность
перегрева
1010.6 1003.8
09 18.09 В 1 4000 м мгла 8/4 540 м
[Sc Ac trans]
+30.6 +25.8 76 +46 +50 опасность
перегрева
1008.3 1001.5
12 18.09 В 1 4000 м мгла 8/5 540 м
[Sc Ac trans]
+28.2 +25.4 85 +41 +41 опасность
перегрева
1008.3 1001.5 +31.2
15 18.09 СВ 2 4000 м мгла 8/5 540 м
[Sc Ac trans]
+27.2 +24.9 87 +39 +39 очень
душно
1009.6 1002.7
18 18.09 СВ 1 2000 м дымка 6/3 600 м
[Sc Ac trans]
+26.4 +25.1 93
21 18.09 штиль 0 2000 м дымка 6/3 600 м
[Sc Ac trans]
+25.4 +24.5 95 +36 +36 очень
душно
1009.1 1002.2
00 19.09 СВ 1 2000 м дымка 8/4 600 м
[Sc Ac trans]
+25.6 +24.7 95 +36 +36 очень
душно
1009.8 1002.9
03 19.09 В 1 2000 м мгла 8/4 600 м
[Sc Ac trans]
+29.2 +26.4 85 +45 +48 опасность
перегрева
1011.1 1004.3 +24.8
06 19.09 В 1 4000 м мгла 8/4 600 м
[Sc Ac trans]
+31.2 +26.5 76 +48 +55 опасность
перегрева
1010.4 1003.6
09 19.09 штиль 0 4000 м мгла 9/5 300 м
[St Ac trans]
+31.2 +25.3 71 +45 +49 опасность
перегрева
1007.7 1000.9
12 19.09 штиль 0 4000 м мгла 9/5 300 м
[St Ac trans]
+29.2 +25.2 79 +42 +42 опасность
перегрева
1007.5 1000.7 +32.6
15 19.09 штиль 0 2000 м дымка {дождь} 9/5 540 м
[Sc Ac trans]
+28.0 +25.7 87 +41 +41 опасность
перегрева
1008.8 1002.0 0.0
18 19.09 штиль 0 2000 м дымка 9/5 540 м
[Sc Ac trans]
+27.2 +25.5 90 +40 +40 очень
душно
1009.2 1002.3 0.0
21 19.09 штиль 0 2000 м дымка 9/5 540 м
[Sc Ac trans]
+26.8 +25.7 94 +40 +40 очень
душно
1008.0 1001.1 0.0
00 20.09 штиль 0 2000 м дымка 6/3 600 м
[Sc Ac trans]
+27.0 +25.9 94 +40 +40 очень
душно
1008.1 1001.2 0.0
03 20.09 В 1 2000 м мгла 6/4 540 м
[Sc Ac trans]
+30.2 +26.3 80 +46 +50 опасность
перегрева
1009.6 1002.8 +26.4 0.0
06 20.09 Ю 1 4000 м мгла 8/5 540 м
[Sc diur, vesp Ac trans]
+33.0 +26.3 68 +49 +56 опасность
перегрева
1008.7 1002.0
09 20.09 ЮВ 2 4000 м мгла 8/5 540 м
[Cb calv Ac trans]
+34.2 +25.2 60 +48 +52 опасность
перегрева
1005.1 998.4
12 20.09 В 2 4000 м мгла 8/5 540 м
[Cb calv Ac trans]
+30.2 +25.7 77 +45 +45 опасность
перегрева
1005.2 998.4 +34.8
15 20.09 штиль 0 4000 м мгла 8/5 540 м
[Sc Ac trans]
+28.6 +26.1 86 +43 +43 опасность
перегрева
1007.3 1000.5
18 20.09 штиль 0 2000 м мгла 8/4 540 м
[Sc Ac trans]
+27.4 +24.8 86 +39 +39 очень
душно
1007.2 1000.4
21 20.09 В 1 2000 м дымка 8/4 540 м
[Sc Ac trans]
+26.6 +24.6 89 +38 +38 очень
душно
1007.9 1001.0
00 21.09 штиль 0 2000 м дымка 8/4 540 м
[Sc Ac trans]
+26.4 +24.4 89 +37 +37 очень
душно
1008.1 1001.2
03 21.09 В 1 4000 м мгла 6/3 600 м
[Sc Ac trans]
+30.6 +26.7 80 +48 +52 опасность
перегрева
1008.7 1001.9 +26.0
06 21.09 В 2 4000 м мгла 6/5 540 м
[Sc diur, vesp Ac trans]
+33.6 +26.1 65 +50 +58 опасность
перегрева
1007.4 1000.7
09 21.09 штиль 0 4000 м мгла {дождь} 8/5 540 м
[Cb calv Ac trans]
+31.6 +26.5 74 +48 +52 опасность
перегрева
1003.6 996.9 1
12 21.09 штиль 0 2000 м мгла {гроза, дождь} 9/5 540 м
[Sc Ac trans]
+26.2 +25.1 94 +38 +38 очень
душно
1005.2 998.3 +34.6 9

 

Местоположение метеостанции Патна (Бихар, Индия): широта 25.60 долгота 85.10 высота над уровнем моря 60 м.

В архиве по умолчанию представлена погода в Патне за последнюю неделю. Архивные данные за месяц целиком и за предыдущие месяцы, начиная с января 2011 года, Вы можете получить, выбрав интересующий диапазон дат из раскрывающегося списка и нажав кнопку "Ввод!".


*Определитесь, кто Вы:
робот инопланетянин человек

Внимание! Время в таблицах - всемирное. Для получения местного времени необходимо прибавить поправку, которая равна 5.5 ч.

Смотрите также архив погоды в соседних городах и на ближайших метеорологических станциях:

Погода в Чхапре (Бихар, Индия) (42 км)
Погода в Гае (Бихар, Индия) (96 км)
Погода в Дехри (Бихар, Индия) (120 км)
Погода в Гхазипуре (Уттар-Прадеш, Индия) (157 км)
Погода в Симаре (Непал) (174 км)
Погода в Бхагалпуре (Бихар, Индия) (190 км)
Погода в Далтонгандже (Джаркханд, Индия) (201 км)
Погода в Варанаси (Уттар-Прадеш, Индия) (212 км)
Погода в Горакпуре (Уттар-Прадеш, Индия) (215 км)
Погода в Варанаси аэропорту (Уттар-Прадеш, Индия) (225 км)

Пояснения к столбцам:

Ветер - указаны скорость ветра в м/с - средняя за 10 мин, порывы в срок и между сроками (в фигурных скобках) и направление, откуда дует ветер: С - северный, СВ - северо-восточный, В - восточный, ЮВ - юго-восточный, Ю - южный, ЮЗ - юго-западный, З - западный, СЗ - северо-западный.
Видимость - горизонтальная дальность видимости в метрах или километрах. При видимости от 1 до 10 км при отсутствии осадков обычно наблюдается дымка, при ухудшении видимости до 1 км и менее - туман. В сухую погоду видимость может ухудшаться дымом, пылью или мглою.
Явления - указаны атмосферные явления, наблюдавшиеся в срок или в последний час перед сроком; фигурными скобками обозначены явления, наблюдавшиеся между сроками (за 1-3 часа до срока); квадратными скобками обозначены град или гололедные отложения с указанием их диаметра в мм.
Облачность - указаны через наклонную черту общая и нижняя облачность в баллах и высота нижней границы облаков в метрах; квадратными скобками обозначены формы облаков: Ci - перистые, Cs - перисто-слоистые, Cc - перисто-кучевые, Ac - высококучевые, As - высокослоистые, Sc - слоисто-кучевые, Ns - слоисто-дождевые, Cu - кучевые, Cb - кучево-дождевые. Подробнее классификацию облаков см. в Атласе облаков (PDF).
T - Температура воздуха - температура, измеренная на высоте 2 м над землей.
Td - Температура точки росы - температура, при понижении до которой содержащийся в воздухе водяной пар достигнет насыщения.
f - Относительная влажность воздуха - влажноcть воздуха, измеренная на высоте 2 м над землей.
Te - Эффективная температура - температура, которую ощущает одетый по сезону человек в тени. Характеристика душности погоды. При расчете учитывается влияние влажности воздуха и скорости ветра на теплоощущения человека.
Tes - Эффективная температура на солнце - температура, которую ощущает человек, с поправкой на солнечный нагрев. Характеристика знойности погоды. Зависит от высоты солнца над горизонтом, облачности и скорости ветра. Ночью, в пасмурную погоду, а также при ветре 12 м/с и более поправка равна нулю.
P - Атмосферное давление - приведенное к уровню моря атмосферное давление.
Po - Атмосферное давление - измеренное на уровне метеостанции атмосферное давление.
Tmin - Минимальная температура - минимум температуры воздуха на высоте 2 м над землей.
Tmax - Максимальная температура - максимум температуры воздуха на высоте 2 м над землей.
R - Количество осадков - Количество выпавших осадков за период времени, мм. При наведении курсора мыши на число - период времени, за который выпало указанное количество осадков.
R24 - Количество осадков - Количество выпавших осадков за 24 часа, мм.
S - Снежный покров - Высота снежного покрова, см. При наведении курсора мыши на число - состояние снежного покрова и степень покрытия местности в баллах.